Flag Weather past 2 weeks in St. Catharines, Ontario, Canada

Now
30 °F

Snow flurries. Low clouds.


Feels Like: 23 °F
Forecast: 25 / 30 °F
Wind: 8 mph from Northeast

Location: Saint Catharines Airport

Current Time: Nov 27, 2014 at 8:50:37 PM

Latest Report: Nov 27, 2014 at 8:00 PM


Visibility: 3 mi

Pressure: 30.11 "Hg

Humidity: 100%

Dew point: 30 °F

Location of St. CatharinesLocation

Historic Weather in St. Catharines — Graph

°F

St. Catharines temperature yesterday

Maximum temperature yesterday: 36 °F (at 11:00 AM)
Minimum temperature yesterday: 32 °F (at 7:00 AM)
Average temperature yesterday: 34 °F

Past Weeks' High & Low Weather Summary

 TemperatureHumidityPressure
High66 °F (Nov 24, 12:00 PM)100% (Nov 16, 7:00 PM)30.47 "Hg (Nov 16, 7:00 PM)
Low14 °F (Nov 19, 7:00 AM)44% (Nov 15, 2:00 PM)29.17 "Hg (Nov 24, 1:00 PM)
Average34 °F73%29.99 "Hg
* Reported Nov 12 7:00 PM — Nov 27 7:00 PM, St. Catharines, Weather by CustomWeather, © 2014

Note: Actual official high and low records may vary slightly from our data, if they occured in-between our weather recording intervals... More about our weather records

Advertising

St. Catharines weather history for previous 24 hours

 ConditionsComfort  
Time TempWeatherWind HumidityBarometerVisibility
7:00 PM
Nov 27
32 °FMostly cloudy.5 mph93%30.10 "Hg15 mi
6:00 PM32 °FSnow flurries. Mostly cloudy.10 mph93%30.09 "Hg2 mi
5:00 PM36 °FSnow flurries. Overcast.8 mph75%30.08 "Hg8 mi
4:00 PM36 °FMore clouds than sun.10 mph65%30.07 "Hg15 mi
3:00 PM36 °FMostly cloudy.8 mph65%30.06 "Hg15 mi
2:00 PM37 °FOvercast.13 mph60%30.06 "Hg15 mi
1:00 PM37 °FPartly sunny.10 mph65%30.06 "Hg15 mi
12:00 PM37 °FBroken clouds.14 mph60%30.07 "Hg15 mi
11:00 AM34 °FMostly cloudy.8 mph75%30.09 "Hg10 mi
10:00 AM32 °FSnow flurries. Broken clouds.8 mph80%30.09 "Hg8 mi
9:51 AM30 °FSnow flurries. Mostly cloudy.7 mph86%30.09 "Hg5 mi
9:00 AM30 °FSnow flurries. More clouds than sun.6 mph75%30.09 "Hg8 mi
8:00 AM30 °FSnow flurries. Overcast.5 mph75%30.08 "Hg8 mi
7:52 AM30 °FSnow flurries. Overcast.5 mph75%30.08 "Hg8 mi
7:00 AM30 °FMostly cloudy.2 mph69%30.07 "Hg15 mi
9:00 PM
Nov 26
34 °FOvercast.7 mph70%30.09 "Hg15 mi
8:00 PM34 °FOvercast.9 mph70%30.08 "Hg15 mi
Weather by CustomWeather, © 2014

See weather overviewHow to use our weather pages